Temp
-6 -6 -7 -8 -8 -8 -9 -9 -8 -8 -9 -9 -9 -8 -9 -8 -8 -8 -9 -9 -9 -9 -8 -8 -8 -8 -8 -9 -10 -12 -12 -13 -14 -15 -16 -18 -19 -19 -18 -17 -16 -16 -15
-6 -7 -8 -8 -8 -9 -9 -9 -8 -8 -9 -9 -9 -9 -9 -9 -9 -9 -9 -9 -9 -9 -8 -9 -8 -8 -9 -10 -11 -13 -12 -13 -14 -15 -16 -18 -20 -19 -18 -17 -16 -16 -16
-6 -7 -8 -8 -8 -8 -9 -9 -8 -8 -9 -10 -9 -9 -9 -9 -8 -9 -8 -10 -9 -8 -8 -9 -8 -9 -9 -10 -12 -13 -12 -13 -14 -14 -15 -16 -17 -17 -17 -17 -17 -16 -16
-7 -8 -8 -8 -9 -9 -9 -9 -9 -9 -9 -9 -9 -9 -9 -9 -9 -9 -9 -9 -9 -9 -9 -9 -9 -9 -10 -11 -12 -13 -13 -13 -14 -14 -14 -15 -16 -16 -16 -16 -16 -16 -16
-8 -8 -9 -9 -9 -9 -8 -8 -9 -9 -9 -9 -9 -10 -9 -9 -9 -9 -10 -9 -9 -9 -9 -9 -10 -10 -10 -10 -12 -13 -13 -12 -13 -14 -14 -14 -15 -15 -15 -15 -16 -16 -16
-8 -9 -9 -9 -9 -9 -9 -8 -9 -9 -9 -9 -10 -10 -9 -9 -9 -10 -10 -10 -10 -10 -10 -10 -11 -11 -11 -11 -12 -12 -12 -12 -13 -13 -14 -15 -16 -16 -16 -17 -17 -17 -17
-8 -8 -9 -8 -9 -9 -9 -9 -9 -9 -9 -10 -10 -10 -10 -10 -10 -10 -10 -9 -10 -10 -10 -10 -11 -11 -11 -11 -13 -12 -13 -12 -13 -13 -13 -14 -15 -16 -17 -17 -16 -17 -16
-8 -8 -8 -9 -9 -9 -9 -8 -9 -9 -9 -10 -10 -10 -10 -10 -10 -10 -10 -10 -10 -11 -10 -10 -11 -12 -11 -12 -12 -13 -13 -13 -13 -14 -14 -14 -15 -15 -15 -15 -15 -15 -16
-8 -8 -8 -9 -9 -9 -8 -9 -9 -9 -9 -9 -10 -10 -10 -10 -10 -10 -10 -10 -11 -11 -11 -11 -12 -12 -12 -12 -13 -13 -14 -14 -14 -14 -14 -14 -14 -14 -14 -14 -14 -14 -15
-8 -8 -9 -9 -9 -9 -8 -9 -9 -9 -9 -9 -10 -10 -10 -10 -11 -11 -11 -11 -11 -11 -11 -12 -12 -12 -12 -13 -13 -14 -14 -15 -15 -14 -14 -14 -14 -14 -14 -14 -14 -14 -13
-8 -8 -9 -8 -8 -9 -9 -9 -9 -9 -9 -10 -10 -10 -10 -10 -10 -10 -11 -11 -12 -12 -11 -12 -12 -13 -13 -13 -14 -14 -14 -14 -14 -14 -15 -14 -14 -14 -14 -14 -14 -13 -13
-8 -8 -8 -8 -9 -9 -9 -9 -9 -9 -9 -10 -10 -10 -10 -10 -10 -10 -11 -11 -11 -12 -12 -12 -13 -13 -13 -13 -14 -14 -14 -14 -14 -15 -15 -15 -15 -15 -15 -14 -15 -14 -13
-8 -8 -9 -8 -8 -9 -9 -9 -9 -9 -9 -10 -10 -10 -10 -10 -10 -11 -11 -11 -11 -12 -13 -13 -13 -13 -13 -13 -14 -15 -15 -15 -15 -15 -15 -15 -15 -15 -15 -15 -15 -15 -15
-8 -8 -8 -8 -9 -8 -8 -8 -9 -9 -9 -10 -10 -10 -10 -10 -10 -11 -11 -11 -12 -12 -13 -14 -13 -14 -14 -14 -14 -15 -15 -15 -15 -15 -15 -15 -15 -15 -15 -15 -15 -15 -15
-8 -8 -8 -8 -8 -8 -8 -9 -9 -9 -9 -10 -10 -10 -10 -10 -10 -11 -11 -11 -12 -12 -14 -14 -14 -14 -14 -14 -14 -15 -15 -16 -16 -16 -16 -16 -16 -16 -16 -16 -15 -15 -15
-8 -8 -8 -8 -8 -8 -8 -9 -9 -9 -9 -10 -10 -10 -10 -10 -10 -10 -11 -11 -12 -13 -14 -15 -14 -14 -14 -14 -15 -15 -16 -16 -16 -16 -16 -16 -16 -16 -16 -16 -16 -16 -16
-8 -8 -8 -9 -8 -8 -8 -8 -9 -9 -10 -10 -10 -10 -10 -10 -10 -11 -11 -12 -12 -14 -15 -15 -15 -15 -15 -15 -15 -15 -16 -16 -16 -16 -17 -17 -17 -17 -16 -17 -16 -16 -16
-9 -9 -9 -9 -9 -9 -9 -9 -9 -10 -10 -10 -10 -10 -10 -11 -11 -11 -11 -12 -12 -14 -15 -15 -15 -15 -15 -15 -15 -15 -16 -16 -16 -17 -17 -17 -17 -17 -17 -17 -17 -17 -16
-9 -9 -9 -9 -9 -9 -9 -9 -9 -9 -10 -10 -10 -10 -11 -10 -11 -10 -11 -12 -13 -14 -15 -15 -15 -15 -15 -15 -16 -16 -16 -16 -17 -17 -17 -17 -17 -18 -18 -17 -17 -17 -17
-9 -10 -9 -9 -9 -9 -9 -9 -10 -10 -10 -10 -10 -11 -11 -11 -11 -11 -11 -13 -14 -15 -15 -15 -15 -15 -16 -16 -16 -16 -17 -17 -17 -17 -17 -17 -17 -18 -18 -18 -18 -18 -18
-10 -10 -10 -10 -10 -9 -9 -9 -10 -10 -10 -10 -11 -10 -11 -11 -11 -12 -12 -13 -15 -16 -16 -16 -16 -16 -16 -16 -16 -17 -17 -17 -17 -17 -18 -18 -18 -18 -18 -18 -19 -19 -18
-10 -10 -10 -10 -10 -9 -10 -10 -10 -10 -11 -11 -11 -11 -11 -12 -12 -12 -13 -14 -16 -16 -17 -16 -16 -16 -16 -16 -17 -17 -17 -17 -18 -18 -18 -18 -18 -19 -19 -19 -19 -19 -19
-10 -10 -10 -10 -10 -9 -9 -10 -10 -10 -10 -11 -11 -11 -11 -12 -12 -12 -14 -15 -17 -17 -16 -16 -16 -16 -17 -17 -17 -17 -18 -18 -18 -19 -19 -19 -19 -19 -19 -19 -19 -20 -19
-10 -10 -10 -10 -10 -10 -10 -10 -10 -11 -11 -11 -11 -12 -12 -12 -12 -13 -14 -16 -17 -16 -16 -16 -16 -17 -17 -17 -17 -18 -18 -18 -19 -19 -19 -19 -19 -19 -20 -20 -20 -20 -20
-10 -10 -10 -10 -10 -10 -10 -11 -11 -11 -12 -12 -12 -12 -12 -13 -14 -14 -14 -16 -16 -16 -16 -16 -17 -17 -17 -17 -17 -18 -18 -18 -19 -20 -20 -20 -20 -20 -20 -20 -20 -20 -20
-10 -10 -10 -10 -10 -11 -11 -11 -11 -12 -12 -12 -12 -12 -13 -13 -14 -15 -15 -16 -16 -16 -16 -16 -17 -17 -17 -17 -17 -18 -18 -19 -19 -20 -20 -20 -20 -20 -20 -20 -21 -21 -20
Height
5948 5948 5947 5946 5945 5943 5940 5937 5934 5931 5927 5921 5916 5911 5905 5899 5892 5886 5880 5873 5868 5862 5854 5847 5839 5829 5818 5806 5792 5779 5766 5751 5737 5722 5700 5681 5670 5670 5678 5685 5690 5691 5692
5947 5947 5945 5944 5943 5941 5938 5935 5932 5929 5925 5919 5914 5908 5901 5895 5889 5881 5875 5868 5862 5855 5849 5841 5831 5821 5809 5796 5782 5770 5758 5742 5726 5713 5692 5673 5660 5662 5672 5678 5682 5684 5683
5945 5945 5944 5942 5940 5938 5936 5933 5930 5927 5923 5917 5910 5905 5897 5891 5883 5875 5868 5860 5855 5849 5843 5834 5824 5813 5801 5788 5774 5764 5751 5735 5721 5708 5694 5680 5671 5670 5673 5675 5677 5678 5676
5943 5942 5941 5940 5938 5936 5934 5931 5928 5924 5919 5912 5906 5900 5894 5887 5879 5872 5864 5858 5851 5843 5835 5826 5816 5806 5795 5784 5770 5759 5745 5732 5717 5706 5697 5688 5681 5677 5676 5675 5673 5672 5669
5941 5940 5939 5937 5935 5933 5931 5927 5924 5920 5915 5908 5902 5896 5890 5883 5875 5867 5859 5853 5844 5836 5828 5818 5808 5798 5787 5777 5764 5752 5739 5728 5715 5705 5696 5689 5683 5678 5675 5672 5671 5667 5663
5939 5938 5936 5933 5931 5929 5926 5923 5919 5915 5910 5903 5897 5892 5885 5878 5870 5862 5853 5846 5838 5830 5822 5812 5802 5792 5781 5769 5756 5746 5734 5723 5711 5703 5696 5690 5683 5677 5674 5671 5665 5661 5656
5934 5933 5931 5928 5926 5924 5921 5917 5914 5910 5906 5899 5893 5886 5879 5873 5865 5857 5848 5839 5831 5824 5816 5807 5797 5787 5777 5763 5752 5741 5731 5720 5712 5702 5694 5689 5683 5678 5672 5667 5661 5654 5647
5929 5927 5925 5923 5921 5919 5916 5912 5909 5905 5900 5894 5888 5881 5874 5868 5859 5851 5842 5834 5826 5818 5810 5801 5792 5782 5771 5761 5749 5738 5729 5721 5713 5704 5697 5691 5686 5680 5672 5667 5660 5654 5646
5922 5921 5919 5918 5916 5914 5911 5908 5904 5899 5893 5888 5883 5876 5868 5862 5854 5845 5837 5827 5819 5812 5804 5795 5787 5778 5767 5758 5747 5737 5728 5720 5713 5706 5697 5691 5685 5679 5672 5665 5657 5651 5646
5916 5915 5914 5913 5911 5908 5906 5902 5898 5892 5887 5882 5876 5870 5863 5857 5847 5837 5828 5820 5814 5807 5798 5791 5783 5775 5765 5755 5745 5736 5728 5722 5713 5705 5697 5689 5682 5677 5672 5665 5658 5651 5643
5910 5909 5909 5907 5904 5902 5899 5896 5891 5885 5879 5874 5870 5864 5857 5848 5838 5830 5821 5815 5807 5801 5793 5786 5778 5771 5763 5753 5744 5738 5731 5723 5716 5708 5700 5692 5684 5676 5669 5663 5657 5650 5643
5904 5903 5902 5900 5897 5894 5891 5887 5882 5877 5872 5867 5863 5857 5849 5841 5832 5824 5816 5809 5802 5795 5788 5780 5773 5767 5760 5752 5743 5736 5730 5723 5717 5709 5702 5694 5686 5678 5670 5663 5655 5647 5640
5897 5896 5894 5893 5890 5886 5881 5877 5873 5869 5865 5860 5856 5848 5841 5835 5826 5817 5810 5803 5796 5789 5781 5774 5768 5762 5755 5748 5740 5733 5727 5721 5715 5709 5702 5695 5688 5680 5672 5663 5656 5648 5640
5889 5888 5887 5885 5881 5876 5872 5868 5864 5861 5857 5853 5848 5841 5834 5828 5820 5811 5804 5796 5789 5782 5774 5768 5762 5756 5750 5743 5736 5729 5723 5717 5712 5706 5699 5693 5686 5680 5673 5666 5659 5651 5644
5881 5881 5879 5876 5872 5867 5864 5860 5857 5853 5849 5845 5841 5835 5827 5819 5811 5804 5796 5789 5780 5773 5767 5760 5755 5750 5744 5738 5731 5725 5719 5712 5706 5701 5695 5689 5683 5677 5670 5663 5656 5649 5642
5873 5873 5870 5868 5863 5859 5856 5852 5849 5846 5841 5837 5831 5826 5818 5811 5804 5796 5788 5780 5772 5764 5758 5754 5749 5744 5738 5732 5725 5719 5713 5707 5701 5695 5690 5685 5679 5673 5667 5660 5653 5646 5641
5865 5864 5862 5859 5855 5851 5848 5845 5841 5837 5832 5827 5821 5815 5809 5803 5796 5788 5779 5771 5763 5756 5752 5748 5743 5738 5733 5727 5721 5714 5708 5702 5696 5690 5684 5678 5673 5667 5662 5656 5651 5644 5637
5857 5855 5853 5850 5848 5844 5840 5837 5833 5828 5823 5818 5813 5808 5802 5794 5787 5778 5770 5762 5754 5748 5745 5740 5736 5733 5728 5722 5715 5708 5703 5696 5690 5684 5679 5673 5667 5662 5656 5651 5646 5641 5633
5849 5847 5845 5843 5840 5836 5832 5828 5824 5819 5815 5810 5805 5799 5792 5784 5777 5769 5760 5753 5747 5742 5739 5734 5729 5726 5721 5715 5709 5702 5696 5690 5684 5678 5673 5668 5662 5656 5651 5645 5640 5636 5629
5840 5838 5836 5835 5832 5827 5823 5819 5814 5810 5806 5801 5795 5789 5783 5774 5766 5759 5751 5744 5740 5736 5732 5727 5723 5719 5714 5709 5703 5697 5690 5684 5678 5672 5666 5661 5656 5651 5645 5640 5635 5632 5626
5831 5829 5827 5825 5822 5818 5814 5810 5806 5801 5796 5791 5785 5779 5772 5765 5757 5749 5741 5736 5732 5729 5724 5721 5718 5713 5708 5702 5695 5689 5683 5678 5672 5666 5661 5655 5650 5644 5639 5634 5630 5626 5621
5822 5820 5817 5815 5812 5808 5805 5801 5796 5791 5787 5781 5775 5769 5763 5756 5748 5740 5734 5730 5726 5723 5718 5715 5711 5705 5699 5694 5688 5682 5676 5670 5663 5658 5653 5648 5643 5638 5633 5628 5624 5620 5616
5810 5809 5807 5805 5801 5797 5794 5790 5786 5781 5777 5772 5766 5760 5754 5747 5740 5733 5728 5724 5720 5715 5711 5707 5703 5698 5693 5687 5681 5675 5668 5663 5657 5651 5646 5641 5636 5631 5627 5622 5618 5614 5609
5798 5797 5795 5792 5789 5786 5782 5778 5775 5771 5767 5761 5755 5749 5743 5738 5733 5727 5722 5717 5714 5710 5706 5702 5697 5691 5686 5680 5674 5667 5661 5655 5649 5644 5639 5634 5629 5624 5621 5615 5612 5608 5603
5786 5784 5782 5780 5777 5773 5770 5767 5763 5759 5755 5749 5745 5740 5734 5728 5723 5719 5717 5714 5709 5704 5699 5694 5690 5684 5678 5672 5666 5659 5653 5648 5642 5636 5631 5627 5622 5618 5613 5608 5605 5602 5598
5773 5771 5769 5766 5763 5761 5758 5755 5752 5748 5743 5739 5734 5729 5725 5722 5717 5713 5710 5707 5702 5698 5693 5688 5683 5678 5671 5665 5660 5653 5646 5640 5635 5629 5624 5620 5617 5611 5606 5603 5599 5595 5592
Wind_Speed
12 12 12 13 15 13 16 22 26 28 34 40 43 48 40 40 41 42 42 44 45 45 48 49 50 55 61 66 67 59 61 60 60 58 58 53 49 44 32 28 27 28 32
11 12 13 14 15 14 18 23 28 27 33 43 48 43 46 48 45 45 49 50 46 44 48 49 51 56 62 62 62 49 60 57 56 55 51 38 25 11 13 17 21 23 23
10 11 13 15 15 18 21 25 29 31 34 45 47 50 49 54 50 54 52 40 41 45 49 48 51 55 60 59 56 51 51 53 54 50 46 38 25 12 9 14 18 20 25
12 12 14 16 18 20 23 26 30 35 39 46 48 49 53 52 54 54 48 45 47 49 49 48 51 54 57 58 47 45 49 50 49 46 41 36 26 18 13 14 18 21 27
13 14 17 18 20 24 26 29 33 37 41 47 46 50 53 57 56 52 48 49 50 50 48 48 49 53 55 57 49 45 47 50 42 39 38 33 27 24 20 17 17 21 25
14 15 18 20 22 26 29 32 36 38 42 48 44 50 54 57 52 53 52 49 47 50 49 47 47 50 53 55 51 46 42 46 36 31 29 29 26 23 24 25 21 18 23
16 17 19 21 24 26 31 35 37 38 41 46 46 49 53 53 54 57 53 48 48 50 49 47 47 47 50 52 48 46 41 41 35 34 29 26 27 17 22 27 30 37 29
20 21 20 23 26 29 33 37 38 43 44 43 46 50 52 55 58 56 53 50 47 50 48 46 44 44 47 49 49 46 41 37 36 30 31 28 28 30 32 29 25 30 39
23 22 23 26 27 31 36 38 42 46 45 45 46 48 51 53 58 58 54 52 48 47 46 43 41 42 45 47 47 45 41 36 32 30 31 32 30 30 32 33 33 32 32
23 22 26 29 32 36 38 40 44 47 45 44 43 45 49 52 57 58 56 51 45 44 43 40 39 40 41 43 41 40 39 36 34 36 35 33 32 30 32 34 35 35 31
28 29 29 33 36 39 40 42 43 46 43 39 40 44 48 55 58 62 52 48 42 43 41 39 38 38 40 41 37 35 34 33 32 31 31 31 32 32 33 35 35 34 33
29 30 33 35 38 40 40 41 44 43 39 38 41 45 51 57 60 57 45 45 45 46 44 38 37 36 38 40 35 31 30 33 32 31 31 32 33 33 33 34 37 36 35
32 33 34 37 37 38 41 39 38 38 37 39 41 46 53 55 55 44 48 48 50 51 45 37 36 36 37 38 35 33 32 31 31 30 32 34 33 33 33 34 35 36 36
32 34 36 35 37 39 37 35 36 35 37 38 42 47 53 51 49 46 49 50 51 54 39 34 36 35 36 37 36 35 34 33 31 31 33 32 35 36 35 33 32 31 32
35 34 36 33 35 35 32 33 34 35 38 41 44 48 50 51 50 54 59 58 52 50 38 30 33 35 36 37 37 37 36 35 34 34 32 33 35 35 37 36 34 32 32
35 35 33 32 33 32 32 33 35 36 40 41 43 46 49 52 55 57 60 51 50 45 33 28 33 35 36 37 37 37 36 35 36 35 35 35 35 37 36 34 35 34 31
37 35 33 35 36 34 35 36 37 37 38 42 44 47 50 53 57 57 55 57 50 38 27 28 33 34 36 36 37 38 38 37 36 36 35 35 36 35 34 33 31 33 32
35 38 37 38 39 38 39 37 38 38 41 45 48 49 50 53 56 58 56 52 45 30 24 29 33 35 37 36 37 38 38 37 36 36 36 34 34 34 33 33 32 31 31
38 42 43 44 40 41 41 40 41 42 43 47 50 51 52 57 57 55 56 48 38 28 26 29 33 35 36 37 37 38 38 37 36 36 37 36 34 33 32 32 32 31 31
43 45 47 46 43 43 44 42 42 43 47 49 49 52 54 58 59 59 53 46 32 26 26 31 33 35 36 37 38 40 40 38 38 37 36 36 35 34 32 31 30 29 29
45 46 50 49 45 45 45 44 43 44 46 48 50 52 55 57 60 55 48 38 28 25 28 31 33 35 37 38 39 40 40 39 39 39 37 35 34 33 33 31 30 29 28
45 48 52 51 49 45 44 45 44 45 47 49 50 53 54 55 52 48 43 34 28 27 29 32 34 36 37 39 40 40 41 40 39 38 37 36 35 34 33 31 31 29 28
50 53 54 53 50 45 44 45 46 46 49 50 52 54 52 56 50 47 39 31 25 27 31 34 35 37 39 41 41 42 42 41 40 38 36 35 35 34 33 32 30 29 28
55 56 57 52 47 46 46 48 48 48 49 52 54 53 53 48 45 42 39 28 25 29 33 36 36 39 41 41 43 43 43 41 39 37 36 35 34 34 33 32 30 28 27
58 59 55 50 48 47 49 48 48 48 51 52 52 50 49 43 40 41 40 22 26 29 34 36 37 39 41 43 43 42 42 41 39 37 35 33 33 32 31 31 29 28 26
59 55 51 50 50 49 50 49 49 50 51 51 48 46 43 39 38 37 25 24 29 32 35 37 38 40 40 41 43 42 41 39 37 35 34 32 30 30 30 29 28 27 26
Wind_Direction
351 354 354 9 6 360 354 354 352 352 350 343 343 344 345 340 333 332 331 331 324 324 329 328 329 330 331 331 330 326 329 327 328 329 323 307 294 279 271 262 267 268 261
342 344 347 355 356 352 351 351 347 347 347 338 343 343 347 344 336 329 331 326 329 328 329 330 331 335 331 334 329 329 331 332 339 342 348 343 318 286 262 261 264 274 273
328 337 336 346 344 344 344 343 341 337 341 337 336 340 341 340 337 339 341 338 333 328 332 331 334 334 335 335 333 332 338 337 342 347 357 2 11 18 310 276 274 284 283
321 333 337 339 336 338 336 335 328 333 335 328 332 337 338 340 344 339 339 338 332 331 332 334 335 336 339 339 336 337 339 340 341 346 352 0 2 353 333 303 295 287 284
315 326 329 325 328 331 334 329 323 327 329 319 330 333 335 337 339 338 335 333 331 334 333 336 334 338 341 342 340 337 337 342 342 343 346 350 353 345 338 328 315 294 290
293 303 310 311 313 325 328 322 321 323 322 322 330 329 332 334 336 341 336 333 332 335 335 333 335 340 341 343 342 343 345 345 350 351 342 341 339 335 334 335 346 342 306
278 288 296 300 306 317 319 316 319 319 321 320 324 325 328 332 337 336 337 334 333 334 335 332 337 340 343 344 344 351 352 353 357 357 4 9 0 16 6 356 348 342 5
277 286 287 291 301 311 316 314 315 314 317 317 318 322 325 328 328 335 334 332 333 335 334 332 336 340 343 344 349 356 355 357 2 6 9 10 8 359 355 356 349 345 346
276 278 282 289 300 307 308 311 311 312 313 315 317 321 323 327 330 332 333 330 333 333 330 332 335 338 342 343 348 354 358 354 356 355 359 359 1 359 358 359 2 359 356
273 282 284 294 302 303 305 307 311 313 313 314 315 318 323 329 329 329 330 332 331 331 329 330 331 336 340 341 349 356 358 357 356 353 352 355 359 358 353 355 358 0 356
268 275 286 293 297 300 303 310 310 311 312 311 312 317 321 323 323 331 325 328 330 331 328 328 328 332 337 340 348 354 355 355 355 358 357 357 359 357 355 355 353 352 357
273 282 289 292 295 300 306 307 307 310 310 309 314 316 316 322 327 326 331 330 331 330 326 324 327 328 333 337 341 342 348 350 354 357 359 360 360 358 355 355 352 352 354
275 281 284 292 300 306 304 304 306 308 308 311 314 313 317 320 328 332 332 330 326 329 324 321 326 325 328 331 336 331 331 336 338 343 347 350 353 354 354 353 350 350 355
278 282 288 298 304 303 301 301 304 306 307 308 308 310 312 322 325 332 337 336 333 329 322 319 324 323 324 325 330 333 329 328 328 330 335 339 341 345 346 347 346 346 352
278 285 293 303 303 303 299 300 301 301 302 304 308 309 313 321 318 320 326 328 332 333 318 317 323 321 321 322 326 330 329 326 326 327 328 330 332 335 337 339 341 342 343
285 290 298 303 311 305 301 301 300 302 302 306 307 310 312 314 316 318 320 324 328 325 310 320 321 320 319 322 324 326 326 323 321 322 323 324 325 326 329 332 336 336 338
284 291 301 310 313 308 302 298 301 298 298 302 306 309 311 314 317 316 320 326 326 317 310 319 317 318 319 321 324 325 324 322 321 319 322 325 325 326 326 328 330 332 333
286 293 300 308 309 307 302 299 297 293 295 302 305 309 314 317 319 321 323 325 325 314 316 316 314 317 318 319 322 325 323 322 322 322 322 323 324 325 325 324 325 328 329
285 293 296 303 305 306 304 299 299 296 297 300 308 309 311 316 319 321 323 324 319 308 316 314 313 315 316 316 320 323 321 322 324 324 323 323 325 324 324 322 323 327 328
283 289 294 300 303 303 304 303 301 297 298 303 305 308 312 317 317 318 322 323 307 309 317 312 312 312 313 314 318 321 321 322 323 322 321 321 323 323 323 321 321 323 324
282 284 291 298 302 303 302 303 300 298 301 304 306 307 312 314 316 319 321 314 303 310 311 311 312 313 314 315 317 317 320 322 322 320 319 318 320 322 322 321 321 323 321
278 284 289 296 298 298 299 300 300 300 301 303 307 310 313 319 320 320 319 305 302 310 313 316 314 314 314 316 316 317 320 320 319 318 317 316 317 319 320 319 320 321 319
276 283 289 295 295 296 297 296 296 296 300 305 306 310 312 315 318 319 314 304 308 313 316 313 315 315 316 317 319 320 320 319 318 317 315 314 315 316 316 317 320 319 314
278 283 289 290 291 293 293 294 297 298 303 306 308 309 312 317 317 315 306 304 314 316 314 315 317 317 319 320 320 320 320 318 316 316 314 314 314 315 316 317 318 316 313
276 282 285 286 289 289 291 296 299 298 304 305 308 307 312 314 314 308 310 310 310 313 312 315 317 320 320 320 320 320 319 316 316 315 315 315 316 317 317 316 317 317 314
277 279 281 284 286 289 291 294 298 301 302 304 306 308 310 313 314 311 304 307 313 312 312 316 321 320 320 322 319 319 319 320 320 319 318 319 321 319 317 320 320 318 316